This is the latest recevied weather packets stored in our database for station/object OZ0AJ-13. If no packets are shown the sender has not sent any weather packets the latest 10 day(s).
| Time | Temp. | Humidity | Pressure | Rain* | Wind** | Luminosity | Snow |
|---|---|---|---|---|---|---|---|
| 1778058925 | 11.11° C | 61% | 1011.9 hPa | 0 mm | - | - | - |
| 1778058321 | 11.11° C | 63% | 1011.9 hPa | 0 mm | - | - | - |
| 1778057716 | 10.56° C | 63% | 1011.8 hPa | 0 mm | - | - | - |
| 1778057132 | 10.56° C | 64% | 1011.9 hPa | 0 mm | - | - | - |
| 1778056528 | 10.56° C | 64% | 1011.8 hPa | 0 mm | - | - | - |
| 1778055924 | 10.56° C | 65% | 1011.8 hPa | 0 mm | - | - | - |
| 1778055320 | 10.56° C | 64% | 1011.7 hPa | 0 mm | - | - | - |
| 1778054716 | 10° C | 65% | 1011.7 hPa | 0 mm | - | - | - |
| 1778054131 | 10° C | 67% | 1011.7 hPa | 0 mm | - | - | - |
| 1778053527 | 9.44° C | 68% | 1011.7 hPa | 0 mm | - | - | - |
| 1778052923 | 8.89° C | 69% | 1011.8 hPa | 0 mm | - | - | - |
| 1778052319 | 8.89° C | 71% | 1011.7 hPa | 0 mm | - | - | - |
| 1778051735 | 8.33° C | 71% | 1011.6 hPa | 0 mm | - | - | - |
| 1778051131 | 8.33° C | 72% | 1011.7 hPa | 0 mm | - | - | - |
| 1778050526 | 7.78° C | 73% | 1011.7 hPa | 0 mm | - | - | - |
| 1778049922 | 7.22° C | 75% | 1011.6 hPa | 0 mm | - | - | - |
| 1778049318 | 7.22° C | 77% | 1011.7 hPa | 0 mm | - | - | - |
| 1778045428 | 4.44° C | 87% | 1011.5 hPa | 0 mm | - | - | - |
| 1778044824 | 4.44° C | 87% | 1011.5 hPa | 0 mm | - | - | - |
| 1778044220 | 3.89° C | 87% | 1011.6 hPa | 0 mm | - | - | - |
| 1778043616 | 3.89° C | 88% | 1011.5 hPa | 0 mm | - | - | - |
| 1778043033 | 3.33° C | 88% | 1011.6 hPa | 0 mm | - | - | - |
| 1778042429 | 3.33° C | 88% | 1011.5 hPa | 0 mm | - | - | - |
| 1778041825 | 3.33° C | 88% | 1011.5 hPa | 0 mm | - | - | - |
| 1778041221 | 2.78° C | 88% | 1011.6 hPa | 0 mm | - | - | - |
* Rain latest hour (hover to see other rain measurements)
** Current wind speed in m/s (hover to see current wind gust speed)